SWA2135 KBNA-KMSY

Flight info

Callsign SWA2135
Flight time 1h 6m
Altitude 36000
Route DRURY4 JALAR MERDN TRSSH1
Aircraft B38M/M-VGDW/C

Departure

Time 2026-05-04 23:00
Airport Nashville International Airport (KBNA)

Arrival

Time 2026-05-05 00:07
Airport Louis Armstrong New Orleans International Airport (KMSY)
Time Latitude Longitude Altitude Speed Heading
2026-05-04 22:32 36.12769 -86.66857 571 ft 0 kts 312°
2026-05-04 22:49 36.12766 -86.66853 574 ft 3 kts 311°
2026-05-04 22:49 36.12755 -86.66837 573 ft 3 kts 311°
2026-05-04 22:50 36.12745 -86.66820 575 ft 2 kts 284°
2026-05-04 22:50 36.12747 -86.66801 572 ft 2 kts 229°
2026-05-04 22:50 36.12751 -86.66796 572 ft 0 kts 226°
2026-05-04 22:56 36.12747 -86.66801 571 ft 3 kts 225°
2026-05-04 22:56 36.12724 -86.66827 573 ft 6 kts 222°
2026-05-04 22:56 36.12688 -86.66868 578 ft 7 kts 222°
2026-05-04 22:56 36.12660 -86.66938 572 ft 14 kts 291°
2026-05-04 22:57 36.12744 -86.67069 571 ft 25 kts 310°
2026-05-04 22:57 36.12848 -86.67218 573 ft 17 kts 307°
2026-05-04 22:57 36.12803 -86.67331 575 ft 16 kts 223°
2026-05-04 22:57 36.12719 -86.67426 577 ft 17 kts 219°
2026-05-04 22:58 36.12610 -86.67507 578 ft 20 kts 208°
2026-05-04 22:58 36.12498 -86.67624 581 ft 22 kts 222°
2026-05-04 22:58 36.12368 -86.67713 581 ft 17 kts 225°
2026-05-04 22:58 36.12373 -86.67821 582 ft 13 kts 288°
2026-05-04 22:59 36.12383 -86.67858 583 ft 0 kts 288°
2026-05-04 22:59 36.12390 -86.67884 580 ft 8 kts 288°
2026-05-04 22:59 36.12366 -86.67979 579 ft 18 kts 213°
2026-05-04 23:00 36.12196 -86.68051 579 ft 42 kts 198°
2026-05-04 23:00 36.11679 -86.68258 580 ft 114 kts 197°
2026-05-04 23:00 36.10728 -86.68645 632 ft 167 kts 200°
2026-05-04 23:00 36.09590 -86.69088 1316 ft 176 kts 199°
2026-05-04 23:01 36.08414 -86.69522 2237 ft 176 kts 199°
2026-05-04 23:01 36.07161 -86.69985 2746 ft 199 kts 199°
2026-05-04 23:01 36.05737 -86.70507 3150 ft 228 kts 199°
2026-05-04 23:01 36.04163 -86.71095 3941 ft 240 kts 199°
2026-05-04 23:02 36.02519 -86.71723 4744 ft 255 kts 199°
2026-05-04 23:02 36.00780 -86.72385 5605 ft 264 kts 200°
2026-05-04 23:02 35.98999 -86.73062 6493 ft 273 kts 200°
2026-05-04 23:02 35.97161 -86.73761 7371 ft 278 kts 200°
2026-05-04 23:03 35.95334 -86.74601 8208 ft 282 kts 214°
2026-05-04 23:03 35.93940 -86.76218 9148 ft 279 kts 237°
2026-05-04 23:03 35.92843 -86.78231 9933 ft 287 kts 239°
2026-05-04 23:03 35.91720 -86.80313 10565 ft 299 kts 239°
2026-05-04 23:04 35.90541 -86.82529 10958 ft 319 kts 240°
2026-05-04 23:04 35.89293 -86.84897 11358 ft 338 kts 240°
2026-05-04 23:04 35.87992 -86.87379 11905 ft 349 kts 240°
2026-05-04 23:04 35.86674 -86.89898 12757 ft 351 kts 240°
2026-05-04 23:05 35.85793 -86.91583 13277 ft 355 kts 240°
2026-05-04 23:05 35.84445 -86.94162 14011 ft 359 kts 240°
2026-05-04 23:05 35.83085 -86.96762 14771 ft 362 kts 241°
2026-05-04 23:05 35.81712 -86.99386 15506 ft 365 kts 241°
2026-05-04 23:06 35.80329 -87.02027 16240 ft 369 kts 241°
2026-05-04 23:06 35.78739 -87.04539 16923 ft 378 kts 226°
2026-05-04 23:06 35.76604 -87.06470 17654 ft 384 kts 218°
2026-05-04 23:06 35.74370 -87.08317 18288 ft 389 kts 218°
2026-05-04 23:07 35.72103 -87.10165 18887 ft 392 kts 218°
2026-05-04 23:07 35.69815 -87.12011 19506 ft 394 kts 217°
2026-05-04 23:07 35.67543 -87.13835 20103 ft 396 kts 217°
2026-05-04 23:07 35.65227 -87.15689 20681 ft 399 kts 217°
2026-05-04 23:08 35.62877 -87.17532 21247 ft 403 kts 213°
2026-05-04 23:08 35.60360 -87.19109 21842 ft 406 kts 211°
2026-05-04 23:08 35.57833 -87.20698 22410 ft 409 kts 212°
2026-05-04 23:08 35.55296 -87.22314 22970 ft 412 kts 212°
2026-05-04 23:09 35.52747 -87.23947 23495 ft 414 kts 212°
2026-05-04 23:09 35.50182 -87.25595 23944 ft 417 kts 212°
2026-05-04 23:09 35.47601 -87.27253 24359 ft 420 kts 212°
2026-05-04 23:09 35.45001 -87.28922 24804 ft 422 kts 212°
2026-05-04 23:10 35.42390 -87.30597 25223 ft 425 kts 212°
2026-05-04 23:10 35.39756 -87.32286 25633 ft 428 kts 212°
2026-05-04 23:10 35.37114 -87.33979 26038 ft 431 kts 212°
2026-05-04 23:10 35.34483 -87.35663 26443 ft 433 kts 212°
2026-05-04 23:11 35.31804 -87.37378 26833 ft 436 kts 212°
2026-05-04 23:11 35.29105 -87.39103 27227 ft 438 kts 212°
2026-05-04 23:11 35.26390 -87.40837 27600 ft 441 kts 212°
2026-05-04 23:11 35.23662 -87.42579 27999 ft 444 kts 212°
2026-05-04 23:12 35.20917 -87.44330 28367 ft 446 kts 212°
2026-05-04 23:12 35.18158 -87.46088 28725 ft 449 kts 212°
2026-05-04 23:12 35.15376 -87.47860 29104 ft 451 kts 212°
2026-05-04 23:12 35.12585 -87.49635 29465 ft 453 kts 212°
2026-05-04 23:13 35.09779 -87.51421 29799 ft 456 kts 212°
2026-05-04 23:13 35.06951 -87.53217 30112 ft 459 kts 212°
2026-05-04 23:13 35.04113 -87.55019 30411 ft 461 kts 212°
2026-05-04 23:13 35.01275 -87.56778 30699 ft 465 kts 208°
2026-05-04 23:14 34.98227 -87.58177 31013 ft 468 kts 206°
2026-05-04 23:14 34.95183 -87.59603 31331 ft 469 kts 206°
2026-05-04 23:14 34.92136 -87.61059 31725 ft 468 kts 207°
2026-05-04 23:14 34.89120 -87.62514 32130 ft 467 kts 207°
2026-05-04 23:15 34.86097 -87.63977 32527 ft 466 kts 207°
2026-05-04 23:15 34.83076 -87.65438 32915 ft 466 kts 207°
2026-05-04 23:15 34.80062 -87.66895 33290 ft 465 kts 207°
2026-05-04 23:15 34.77089 -87.68331 33670 ft 464 kts 207°
2026-05-04 23:16 34.74085 -87.69780 34028 ft 464 kts 208°
2026-05-04 23:16 34.71086 -87.71226 34346 ft 464 kts 208°
2026-05-04 23:16 34.68088 -87.72671 34644 ft 463 kts 208°
2026-05-04 23:16 34.65083 -87.74118 34937 ft 463 kts 208°
2026-05-04 23:17 34.62088 -87.75559 35257 ft 462 kts 208°
2026-05-04 23:17 34.59101 -87.76994 35545 ft 462 kts 208°
2026-05-04 23:17 34.56108 -87.78433 35798 ft 462 kts 208°
2026-05-04 23:17 34.53112 -87.79871 35965 ft 463 kts 208°
2026-05-04 23:18 34.47125 -87.82741 35949 ft 461 kts 208°
2026-05-04 23:18 34.41150 -87.85601 35946 ft 462 kts 208°
2026-05-04 23:19 34.35204 -87.88443 35945 ft 462 kts 208°
2026-05-04 23:19 34.29213 -87.91302 35945 ft 463 kts 208°
2026-05-04 23:20 34.23212 -87.94162 35947 ft 464 kts 208°
2026-05-04 23:20 34.17207 -87.97018 35948 ft 464 kts 209°
2026-05-04 23:21 34.11193 -87.99875 35943 ft 465 kts 209°
2026-05-04 23:21 34.05163 -88.02735 35941 ft 465 kts 209°
2026-05-04 23:22 33.99124 -88.05595 35938 ft 466 kts 209°
2026-05-04 23:22 33.93083 -88.08452 35947 ft 467 kts 209°
2026-05-04 23:23 33.87071 -88.11290 35940 ft 467 kts 209°
2026-05-04 23:23 33.81013 -88.14146 35936 ft 468 kts 209°
2026-05-04 23:24 33.74941 -88.17004 35934 ft 468 kts 209°
2026-05-04 23:24 33.68871 -88.19857 35931 ft 469 kts 210°
2026-05-04 23:25 33.65822 -88.21280 35819 ft 470 kts 214°
2026-05-04 23:25 33.62779 -88.22713 35947 ft 471 kts 214°
2026-05-04 23:25 33.56609 -88.25607 35926 ft 478 kts 214°
2026-05-04 23:26 33.50455 -88.28486 35927 ft 478 kts 214°
2026-05-04 23:26 33.44247 -88.31386 35936 ft 479 kts 214°
2026-05-04 23:27 33.38026 -88.34287 35967 ft 479 kts 215°
2026-05-04 23:27 33.31799 -88.37187 35960 ft 480 kts 215°
2026-05-04 23:28 33.25568 -88.40084 35966 ft 481 kts 215°
2026-05-04 23:28 33.19365 -88.42963 35968 ft 481 kts 215°
2026-05-04 23:29 33.13083 -88.45875 35971 ft 481 kts 215°
2026-05-04 23:29 33.06875 -88.48749 35978 ft 482 kts 215°
2026-05-04 23:30 33.00618 -88.51640 35981 ft 482 kts 215°
2026-05-04 23:30 32.94361 -88.54527 35988 ft 482 kts 215°
2026-05-04 23:31 32.88097 -88.57413 35993 ft 482 kts 215°
2026-05-04 23:31 32.81824 -88.60299 35997 ft 483 kts 215°
2026-05-04 23:32 32.75591 -88.63162 35994 ft 483 kts 214°
2026-05-04 23:32 32.69325 -88.66036 35984 ft 483 kts 214°
2026-05-04 23:33 32.63047 -88.68911 35985 ft 483 kts 214°
2026-05-04 23:33 32.56774 -88.71780 35982 ft 484 kts 214°
2026-05-04 23:34 32.50490 -88.74650 35985 ft 484 kts 214°
2026-05-04 23:34 32.44193 -88.77521 35990 ft 484 kts 214°
2026-05-04 23:35 32.38054 -88.80598 35979 ft 460 kts 227°
2026-05-04 23:35 32.35594 -88.82789 36003 ft 447 kts 232°
2026-05-04 23:35 32.33146 -88.85080 35992 ft 448 kts 233°
2026-05-04 23:36 32.28301 -88.89717 35985 ft 446 kts 233°
2026-05-04 23:36 32.23541 -88.94333 35167 ft 441 kts 234°
2026-05-04 23:37 32.21163 -88.96643 34461 ft 442 kts 233°
2026-05-04 23:37 32.18785 -88.98951 33735 ft 443 kts 233°
2026-05-04 23:37 32.16403 -89.01260 32930 ft 444 kts 232°
2026-05-04 23:37 32.14037 -89.03554 32135 ft 445 kts 232°
2026-05-04 23:38 32.11648 -89.05867 31521 ft 443 kts 231°
2026-05-04 23:38 32.09260 -89.08179 31116 ft 445 kts 231°
2026-05-04 23:38 32.06861 -89.10501 30817 ft 448 kts 231°
2026-05-04 23:38 32.04438 -89.12844 30548 ft 453 kts 230°
2026-05-04 23:39 32.01998 -89.15200 30286 ft 454 kts 230°
2026-05-04 23:39 31.99552 -89.17560 30022 ft 455 kts 230°
2026-05-04 23:39 31.97100 -89.19926 29725 ft 456 kts 230°
2026-05-04 23:39 31.94639 -89.22297 29424 ft 457 kts 230°
2026-05-04 23:40 31.92172 -89.24674 29132 ft 457 kts 229°
2026-05-04 23:40 31.89733 -89.27020 29007 ft 451 kts 229°
2026-05-04 23:40 31.84875 -89.31693 29005 ft 451 kts 230°
2026-05-04 23:41 31.80046 -89.36329 29004 ft 451 kts 230°
2026-05-04 23:41 31.75172 -89.41002 29007 ft 452 kts 230°
2026-05-04 23:42 31.70383 -89.45587 29016 ft 437 kts 230°
2026-05-04 23:42 31.65675 -89.50086 28789 ft 434 kts 230°
2026-05-04 23:43 31.63337 -89.52319 28437 ft 432 kts 230°
2026-05-04 23:43 31.61019 -89.54529 27928 ft 425 kts 229°
2026-05-04 23:43 31.58726 -89.56718 27528 ft 424 kts 229°
2026-05-04 23:43 31.56474 -89.58863 27145 ft 422 kts 229°
2026-05-04 23:44 31.54199 -89.61031 26741 ft 420 kts 229°
2026-05-04 23:44 31.51941 -89.63179 26350 ft 417 kts 228°
2026-05-04 23:44 31.49695 -89.65316 25959 ft 414 kts 228°
2026-05-04 23:44 31.47468 -89.67433 25570 ft 411 kts 227°
2026-05-04 23:45 31.45250 -89.69540 25180 ft 409 kts 227°
2026-05-04 23:45 31.43051 -89.71628 24806 ft 406 kts 227°
2026-05-04 23:45 31.40860 -89.73707 24426 ft 403 kts 226°
2026-05-04 23:45 31.38687 -89.75768 24050 ft 401 kts 226°
2026-05-04 23:46 31.36524 -89.77818 23673 ft 398 kts 226°
2026-05-04 23:46 31.34380 -89.79849 23245 ft 395 kts 225°
2026-05-04 23:46 31.32249 -89.81867 22843 ft 393 kts 225°
2026-05-04 23:46 31.30128 -89.83874 22472 ft 391 kts 225°
2026-05-04 23:47 31.28017 -89.85870 22100 ft 389 kts 225°
2026-05-04 23:47 31.25917 -89.87853 21739 ft 387 kts 225°
2026-05-04 23:47 31.23828 -89.89826 21376 ft 385 kts 225°
2026-05-04 23:47 31.21747 -89.91790 21020 ft 383 kts 225°
2026-05-04 23:48 31.19679 -89.93741 20658 ft 381 kts 225°
2026-05-04 23:48 31.17649 -89.95654 20308 ft 379 kts 225°
2026-05-04 23:48 31.15600 -89.97585 19955 ft 377 kts 225°
2026-05-04 23:48 31.13562 -89.99505 19598 ft 375 kts 225°
2026-05-04 23:49 31.11530 -90.01416 19246 ft 374 kts 225°
2026-05-04 23:49 31.09509 -90.03316 18896 ft 372 kts 225°
2026-05-04 23:49 31.07501 -90.05204 18548 ft 370 kts 225°
2026-05-04 23:49 31.05497 -90.07087 18186 ft 368 kts 225°
2026-05-04 23:50 31.03507 -90.08955 17804 ft 367 kts 225°
2026-05-04 23:50 31.01522 -90.10818 17451 ft 365 kts 225°
2026-05-04 23:50 30.99550 -90.12668 17091 ft 363 kts 225°
2026-05-04 23:50 30.97579 -90.14516 16736 ft 362 kts 225°
2026-05-04 23:51 30.95623 -90.16349 16396 ft 360 kts 225°
2026-05-04 23:51 30.93673 -90.18175 16054 ft 359 kts 224°
2026-05-04 23:51 30.91750 -90.19976 15722 ft 358 kts 224°
2026-05-04 23:51 30.89676 -90.21598 15332 ft 365 kts 210°
2026-05-04 23:52 30.87213 -90.22407 14997 ft 374 kts 191°
2026-05-04 23:52 30.84587 -90.22388 14669 ft 379 kts 182°
2026-05-04 23:52 30.81956 -90.22224 14311 ft 378 kts 182°
2026-05-04 23:52 30.79335 -90.22047 13943 ft 376 kts 181°
2026-05-04 23:53 30.76727 -90.21862 13563 ft 374 kts 181°
2026-05-04 23:53 30.75000 -90.21737 13304 ft 373 kts 181°
2026-05-04 23:53 30.72425 -90.21550 12943 ft 368 kts 181°
2026-05-04 23:53 30.69887 -90.21366 12611 ft 363 kts 181°
2026-05-04 23:54 30.67378 -90.21182 12238 ft 360 kts 181°
2026-05-04 23:54 30.64886 -90.21000 11877 ft 354 kts 181°
2026-05-04 23:54 30.62484 -90.20824 11573 ft 338 kts 181°
2026-05-04 23:54 30.59453 -90.20603 11169 ft 320 kts 181°
2026-05-04 23:55 30.57972 -90.20495 11021 ft 311 kts 181°
2026-05-04 23:55 30.55827 -90.20338 10887 ft 308 kts 181°
2026-05-04 23:55 30.51577 -90.20027 10650 ft 306 kts 181°
2026-05-04 23:56 30.49450 -90.19872 10539 ft 305 kts 181°
2026-05-04 23:56 30.47360 -90.19801 10338 ft 297 kts 192°
2026-05-04 23:56 30.45419 -90.20487 9959 ft 291 kts 207°
2026-05-04 23:56 30.43538 -90.21357 9576 ft 292 kts 206°
2026-05-04 23:57 30.41652 -90.22220 9176 ft 287 kts 206°
2026-05-04 23:57 30.39821 -90.23064 8836 ft 278 kts 206°
2026-05-04 23:57 30.38040 -90.23887 8505 ft 275 kts 206°
2026-05-04 23:57 30.36287 -90.24698 8183 ft 275 kts 205°
2026-05-04 23:58 30.34512 -90.25518 7837 ft 275 kts 205°
2026-05-04 23:58 30.32736 -90.26340 7506 ft 274 kts 205°
2026-05-04 23:58 30.30966 -90.27158 7172 ft 274 kts 205°
2026-05-04 23:58 30.29212 -90.27969 6834 ft 268 kts 205°
2026-05-04 23:59 30.27511 -90.28755 6512 ft 259 kts 204°
2026-05-04 23:59 30.25862 -90.29517 6180 ft 251 kts 204°
2026-05-04 23:59 30.24266 -90.30253 5871 ft 243 kts 204°
2026-05-04 23:59 30.22739 -90.30959 5611 ft 231 kts 204°
2026-05-05 00:00 30.21274 -90.31636 5314 ft 222 kts 204°
2026-05-05 00:00 30.20331 -90.32071 5121 ft 217 kts 203°
2026-05-05 00:00 30.18497 -90.32917 4755 ft 207 kts 202°
2026-05-05 00:00 30.17184 -90.33523 4483 ft 199 kts 202°
2026-05-05 00:01 30.15918 -90.34106 4237 ft 192 kts 202°
2026-05-05 00:01 30.14687 -90.34674 4003 ft 188 kts 201°
2026-05-05 00:01 30.13494 -90.35223 3795 ft 182 kts 202°
2026-05-05 00:01 30.12348 -90.35751 3565 ft 177 kts 201°
2026-05-05 00:02 30.11218 -90.36271 3328 ft 173 kts 201°
2026-05-05 00:02 30.10120 -90.36776 3117 ft 167 kts 201°
2026-05-05 00:02 30.09046 -90.37271 2900 ft 166 kts 200°
2026-05-05 00:02 30.07977 -90.37764 2694 ft 165 kts 201°
2026-05-05 00:03 30.06918 -90.38252 2523 ft 159 kts 200°
2026-05-05 00:03 30.05928 -90.38709 2304 ft 148 kts 201°
2026-05-05 00:03 30.04992 -90.39139 2087 ft 143 kts 201°
2026-05-05 00:03 30.04043 -90.39482 1879 ft 144 kts 182°
2026-05-05 00:04 30.03130 -90.39081 1767 ft 147 kts 140°
2026-05-05 00:04 30.02495 -90.38155 1699 ft 151 kts 130°
2026-05-05 00:04 30.01962 -90.37116 1512 ft 151 kts 123°
2026-05-05 00:04 30.01559 -90.35982 1336 ft 154 kts 114°
2026-05-05 00:05 30.01259 -90.34836 1176 ft 145 kts 110°
2026-05-05 00:05 30.00997 -90.33729 964 ft 141 kts 111°
2026-05-05 00:05 30.00740 -90.32646 777 ft 137 kts 112°
2026-05-05 00:05 30.00483 -90.31587 625 ft 138 kts 111°
2026-05-05 00:06 30.00225 -90.30527 456 ft 136 kts 108°
2026-05-05 00:06 29.99990 -90.29500 246 ft 130 kts 111°
2026-05-05 00:06 29.99734 -90.28478 113 ft 136 kts 110°
2026-05-05 00:06 29.99495 -90.27450 15 ft 127 kts 110°
2026-05-05 00:07 29.99279 -90.26592 11 ft 88 kts 105°
2026-05-05 00:07 29.99167 -90.26121 8 ft 40 kts 106°
2026-05-05 00:07 29.99113 -90.25896 11 ft 26 kts 105°
2026-05-05 00:07 29.99078 -90.25690 9 ft 26 kts 77°
2026-05-05 00:08 29.99130 -90.25638 8 ft 4 kts 13°
2026-05-05 00:08 29.99167 -90.25628 8 ft 7 kts 10°
2026-05-05 00:08 29.99202 -90.25668 7 ft 10 kts 283°
2026-05-05 00:08 29.99226 -90.25791 7 ft 20 kts 283°
2026-05-05 00:09 29.99273 -90.25862 7 ft 12 kts 358°
2026-05-05 00:09 29.99344 -90.25847 6 ft 8 kts 12°
2026-05-05 00:09 29.99384 -90.25821 7 ft 3 kts 72°
2026-05-05 00:09 29.99381 -90.25795 8 ft 6 kts 99°
2026-05-05 00:10 29.99376 -90.25766 11 ft 3 kts 100°
2026-05-05 00:10 29.99375 -90.25762 11 ft 0 kts 100°
2026-05-05 00:16 29.99376 -90.25765 11 ft 0 kts 100°